Theta_e
318 326 328 328 336 341 343 341 338 341 343 342 341 345 347 349 346 341 345 339 338 325 320 320 325 333 338 340 337 334 332 327 327 325 323 323 323 324 323 322 324 324 325 327 329 330 330 332 333
318 320 328 331 338 346 344 336 336 337 341 340 345 343 347 351 353 352 348 338 339 322 320 320 323 329 333 335 335 334 332 328 327 326 325 324 325 326 326 325 325 326 327 328 331 332 333 333 333
324 326 329 333 336 340 337 335 337 338 341 340 339 341 345 351 352 353 342 339 339 324 321 320 322 325 329 332 333 333 331 329 327 326 325 325 326 326 327 326 326 327 328 330 333 334 334 334 335
325 327 328 332 338 336 335 335 338 341 343 340 342 346 349 350 349 349 339 340 339 338 322 321 321 323 326 329 330 331 331 329 328 327 326 326 326 326 327 327 328 329 329 330 333 335 335 335 335
324 326 330 333 334 334 334 334 338 341 341 342 341 346 351 347 347 342 338 339 339 341 324 321 321 322 324 327 328 329 329 328 329 328 327 327 327 327 327 328 328 328 329 330 330 331 332 332 332
325 328 330 332 333 332 334 333 338 339 339 341 341 342 347 346 344 339 338 338 338 342 332 321 321 321 322 323 324 326 327 327 328 328 328 328 328 328 328 328 328 328 329 330 330 331 331 331 331
325 329 331 331 332 332 332 332 334 342 341 339 342 343 340 345 343 339 338 338 340 344 340 322 321 321 321 321 322 324 326 326 327 328 328 328 328 329 328 328 328 328 328 329 329 329 330 330 329
328 329 329 331 331 332 331 332 333 344 341 337 338 343 346 346 344 342 339 339 340 345 341 324 323 322 322 321 322 322 323 325 326 327 327 327 327 327 326 327 326 327 327 327 327 326 325 327 327
328 330 329 330 331 331 330 332 331 335 340 342 336 335 340 346 345 344 341 340 341 344 346 342 337 325 325 323 322 322 322 323 324 325 326 326 326 326 325 324 324 324 324 325 324 324 327 335 335
328 331 331 331 330 330 329 330 330 331 337 341 339 346 350 347 346 344 344 343 342 341 345 344 344 343 342 342 330 323 323 322 322 323 323 324 332 344 342 344 339 326 323 323 324 325 328 342 344
327 329 331 330 328 329 329 329 329 330 330 332 335 338 344 350 346 343 343 344 344 343 342 345 344 344 343 344 344 343 330 327 325 325 326 324 340 344 345 343 343 335 324 324 327 340 337 345 342
326 327 328 328 328 328 329 330 329 328 329 328 328 332 338 346 345 342 344 344 343 345 344 344 344 344 344 344 345 346 342 343 341 341 338 340 341 342 343 342 340 342 340 341 341 344 344 344 343
325 326 326 326 327 327 328 329 329 329 328 328 329 332 334 336 341 341 343 344 343 345 346 346 346 345 343 346 345 346 344 344 343 342 342 340 338 340 341 341 340 342 342 341 343 343 342 345 344
325 324 325 325 326 326 327 328 328 328 328 328 329 330 332 333 339 342 345 348 347 347 348 348 348 348 345 344 346 345 346 346 344 344 343 343 339 340 339 339 339 339 338 339 341 342 344 347 347
324 325 324 325 326 326 327 327 328 329 329 329 330 330 331 335 335 342 348 351 352 349 351 349 349 350 350 344 346 348 347 346 347 345 344 343 343 339 340 339 339 339 338 340 340 341 342 343 340
325 326 325 326 326 326 326 326 328 330 329 329 331 332 330 348 346 347 352 353 354 355 353 352 350 352 352 352 350 348 348 350 348 346 345 345 344 342 339 338 336 338 338 337 338 340 344 344 346
326 324 325 325 327 326 327 327 330 330 329 330 332 335 344 349 352 351 352 354 355 356 355 353 351 351 352 351 354 353 351 351 350 349 346 346 346 345 343 340 342 340 338 337 337 337 338 341 343
325 325 326 327 328 328 326 328 332 331 331 331 332 336 340 345 347 351 354 355 355 353 355 355 354 350 353 353 352 352 352 351 351 351 349 346 346 347 345 344 342 342 340 342 344 343 343 345 345
327 327 328 328 329 328 327 328 332 332 331 331 333 337 344 348 347 346 349 352 352 353 352 352 353 353 352 352 353 352 351 352 351 351 349 348 346 345 344 343 343 345 343 342 345 345 344 337 336
326 327 328 327 328 328 328 328 328 333 332 331 334 338 345 345 345 345 343 340 344 348 349 350 351 351 349 351 350 351 351 350 350 349 348 345 345 345 343 344 342 343 345 342 341 342 340 336 337
327 327 326 326 327 327 327 328 329 330 333 332 335 338 341 344 343 344 344 344 345 344 344 342 345 349 350 350 350 349 349 349 347 346 346 345 343 343 344 343 344 343 340 337 339 339 339 338 337
327 327 326 326 327 327 329 329 332 329 333 334 337 339 340 342 343 343 344 344 343 342 341 338 342 343 345 348 347 347 347 345 344 344 343 342 339 338 337 337 338 338 338 331 330 331 333 331 331
327 327 327 328 328 329 329 329 328 332 334 336 337 337 339 341 341 342 342 340 339 338 333 331 330 330 336 342 340 342 342 343 342 341 339 337 334 332 331 330 331 331 331 332 333 337 336 335 333
327 327 328 328 328 331 328 328 329 329 334 337 337 337 338 340 340 340 340 337 335 332 330 324 324 324 324 324 326 328 333 335 333 330 331 330 328 328 326 322 325 324 324 327 330 332 333 333 333
328 328 328 329 329 330 328 329 330 330 330 337 339 338 338 339 338 339 337 333 332 331 331 330 326 324 322 321 320 320 321 323 326 325 324 323 323 322 314 312 311 311 310 320 322 319 323 327 330
327 328 329 330 331 329 331 331 331 332 333 334 338 338 337 337 338 336 334 332 332 330 331 330 329 328 327 326 325 324 326 322 321 321 321 320 321 320 319 319 314 311 311 309 310 317 319 322 324
326 329 327 330 330 330 329 330 333 332 337 339 338 337 337 336 336 334 332 331 330 330 330 330 328 327 326 325 324 322 321 323 321 320 322 322 319 319 319 318 317 316 315 314 310 313 316 315 315
328 326 329 331 334 337 330 331 332 335 335 338 338 337 337 335 335 333 332 331 330 330 329 329 328 326 325 325 323 323 323 323 323 321 320 319 318 316 317 316 314 313 314 315 313 310 311 318 322
328 329 329 331 331 334 336 331 332 336 337 336 337 336 336 335 334 333 332 331 331 330 328 327 326 325 324 323 322 323 323 323 322 321 319 315 315 314 315 313 312 311 312 314 314 313 316 317 319
330 330 332 333 334 334 335 334 331 333 333 334 333 335 335 335 334 333 333 332 330 329 328 327 326 326 324 323 323 324 322 322 322 319 316 313 313 312 312 310 307 308 310 310 308 311 314 315 317
Wind_Speed
17 15 18 14 4 6 10 13 12 16 12 13 12 13 21 21 10 5 17 16 16 19 19 18 17 17 16 14 12 11 11 12 12 13 14 15 16 16 16 16 17 17 17 17 17 17 18 17 18
16 13 9 8 4 5 10 8 13 13 11 12 3 22 23 17 18 18 18 22 15 22 19 18 17 17 16 14 12 11 11 11 11 12 13 13 14 15 15 15 15 15 15 14 14 15 15 15 16
18 13 11 5 11 10 2 10 11 11 8 17 17 19 13 17 16 18 23 22 17 20 19 17 17 16 15 14 13 12 11 10 10 10 11 12 12 13 13 13 13 13 13 12 13 13 13 13 13
12 10 11 10 11 7 8 5 1 11 8 22 18 14 12 10 11 18 25 23 21 20 19 18 17 15 14 13 11 10 10 9 9 9 9 10 11 10 10 10 10 11 10 10 10 10 10 9 9
14 15 11 16 6 7 8 3 10 17 16 36 27 17 13 13 17 26 26 20 21 20 17 18 16 15 14 13 11 10 9 9 8 8 8 8 8 8 7 8 7 7 6 7 6 6 5 5 4
13 17 15 14 5 5 5 5 12 12 36 21 28 17 9 14 21 24 23 21 20 20 13 17 16 15 13 12 11 10 9 8 7 7 7 6 6 6 5 5 4 4 3 3 3 2 2 2 2
15 13 19 20 2 3 7 5 6 29 26 6 21 8 14 11 19 21 21 21 20 14 13 18 16 15 14 12 11 10 10 8 7 7 6 5 5 4 3 3 2 1 1 0 1 1 2 2 3
17 13 21 19 7 8 9 6 5 27 8 10 9 4 14 14 20 20 19 20 19 15 9 18 17 15 14 13 12 11 10 9 8 7 7 6 5 4 3 3 2 3 3 2 2 3 4 3 2
15 11 15 14 7 7 8 6 2 2 18 38 31 36 28 20 18 18 17 17 17 17 12 14 14 15 13 13 13 11 11 10 9 9 8 6 5 4 5 5 4 5 5 4 3 2 4 4 0
17 13 23 8 17 7 10 8 8 6 13 35 50 27 23 20 18 16 15 16 17 15 15 14 15 11 12 9 8 9 10 10 9 9 9 8 4 5 5 10 9 8 8 7 5 2 2 6 8
20 17 22 12 8 12 11 3 3 10 7 20 17 19 15 14 12 15 16 17 19 18 17 17 18 14 15 18 9 8 8 8 8 9 9 9 8 7 11 15 11 11 11 9 9 6 8 6 9
19 23 26 7 3 6 12 10 5 9 11 9 7 9 9 9 12 10 14 17 17 19 16 17 18 17 17 19 10 2 8 7 5 7 10 9 12 12 15 13 14 13 14 9 9 8 13 8 6
16 18 22 9 13 10 15 11 12 16 9 1 3 7 5 6 7 8 6 8 17 16 15 14 19 22 23 16 12 10 9 14 8 11 12 11 12 12 13 15 15 15 12 12 11 11 14 15 15
15 17 24 13 18 18 11 13 23 12 4 3 3 6 13 7 8 7 7 11 12 10 15 14 15 19 17 25 16 16 16 14 15 13 14 15 13 14 15 16 18 18 16 14 15 15 14 9 13
15 12 17 12 17 14 13 13 17 10 3 2 1 2 5 5 6 6 13 9 9 12 8 12 14 17 16 22 22 17 14 17 14 16 14 18 18 18 19 18 14 14 13 13 16 19 19 20 20
16 13 15 18 19 17 16 15 20 16 9 8 4 4 3 9 11 10 11 9 8 7 14 10 13 16 17 15 16 19 18 15 13 15 15 20 22 19 20 21 18 14 14 16 15 17 18 19 20
14 15 19 21 23 13 13 16 9 13 11 8 6 7 12 13 13 9 8 6 8 9 7 13 13 12 16 14 15 13 13 15 14 15 16 18 20 18 16 18 14 12 16 16 17 19 19 22 19
14 18 16 15 15 13 16 15 14 13 13 9 11 9 9 8 9 8 7 6 6 5 7 6 8 16 10 12 12 14 13 14 15 15 16 17 17 14 16 18 14 18 19 14 15 17 20 18 23
21 15 16 12 10 15 14 15 17 21 15 16 12 8 13 11 6 4 8 8 10 11 10 11 11 9 16 14 12 10 13 17 14 15 14 15 16 13 15 17 12 17 17 21 22 23 22 21 25
20 12 17 11 7 11 13 17 16 16 17 16 17 13 13 8 7 7 7 7 11 12 13 12 12 13 11 10 12 13 11 13 19 20 18 20 15 14 16 14 18 18 20 21 23 22 23 26 27
12 14 16 16 15 15 10 13 19 18 23 17 11 16 14 13 10 9 10 9 10 10 7 6 10 9 10 10 11 11 11 8 10 10 14 17 16 17 16 13 13 16 16 19 23 23 23 26 26
16 17 18 18 18 14 17 14 19 20 18 18 17 14 14 13 12 11 12 11 11 11 8 7 7 7 8 6 3 8 8 8 7 8 7 6 10 10 12 12 13 14 15 15 16 16 17 19 23
18 19 20 17 16 18 20 13 17 17 21 20 23 23 20 17 15 15 14 14 14 12 11 12 12 10 7 4 3 5 6 7 5 2 5 8 9 10 12 12 14 17 18 21 20 16 18 19 23
20 19 17 19 11 15 21 18 17 16 18 22 27 27 23 21 18 16 15 15 15 13 12 13 12 12 10 8 7 5 5 6 6 8 8 10 11 11 12 8 10 11 11 13 14 17 19 19 19
18 16 12 15 13 16 19 19 16 16 18 26 26 32 28 25 22 20 18 16 15 13 11 10 10 11 9 8 9 11 10 11 13 10 9 8 5 7 12 12 11 12 11 9 14 13 12 11 12
20 17 14 17 15 18 22 21 16 17 7 17 36 34 31 28 25 22 20 17 15 14 12 11 9 10 8 10 11 9 8 10 8 11 9 4 8 11 11 14 15 14 14 12 11 12 9 9 11
23 18 19 20 20 16 18 21 10 14 18 24 29 32 31 29 28 26 24 19 17 14 13 12 11 10 8 8 7 9 11 7 7 9 7 5 5 6 10 12 14 16 16 17 15 11 13 13 15
24 17 16 13 19 19 18 18 15 14 14 16 20 23 25 26 27 27 26 22 19 15 13 12 11 10 9 8 8 8 7 6 7 6 5 4 6 9 11 14 17 18 16 17 21 16 13 10 17
15 18 18 16 14 12 14 13 3 5 11 9 14 22 22 24 29 30 27 24 19 17 14 13 12 11 11 11 9 8 5 4 4 2 2 5 8 12 15 18 20 21 16 16 18 19 13 13 12
20 18 19 14 22 15 15 13 6 9 13 23 27 26 28 27 25 29 28 23 21 16 17 15 12 13 13 12 8 6 4 1 2 2 6 9 12 16 20 22 22 17 15 18 18 14 15 16 15
Wind_Direction
315 329 324 304 249 6 245 248 84 97 78 89 64 81 70 45 108 179 149 147 165 152 142 139 138 137 135 131 124 114 105 100 95 92 92 95 96 95 97 100 99 97 97 96 95 94 92 91 88
320 328 294 258 252 113 275 93 93 83 97 104 53 96 75 64 88 127 138 145 169 144 145 141 139 138 136 134 128 121 116 111 105 98 96 98 97 96 96 97 99 98 99 98 97 94 93 91 88
321 322 289 224 237 186 318 65 110 120 158 102 81 62 56 94 96 128 138 146 157 144 145 141 140 138 138 138 136 132 127 119 111 106 103 103 102 100 99 101 103 103 102 101 100 98 97 94 87
315 305 235 242 169 242 50 71 185 139 118 86 81 90 82 45 108 132 139 144 137 140 147 143 143 141 140 139 136 134 132 129 122 118 112 107 106 106 107 108 109 108 106 105 104 101 97 93 87
295 274 269 263 219 95 85 52 72 45 5 11 61 54 81 87 115 130 140 140 141 154 147 147 146 145 145 144 143 142 141 139 136 130 121 115 112 114 115 113 113 111 107 106 106 106 100 91 80
292 264 272 269 171 97 91 317 110 116 74 351 63 51 61 109 127 136 140 140 144 171 160 154 151 150 149 149 149 151 151 153 152 146 136 131 131 133 129 126 129 127 123 116 116 116 110 89 78
268 287 287 289 206 176 60 320 9 92 90 208 57 52 316 139 139 141 143 144 149 168 184 163 160 158 156 156 156 162 164 168 168 163 158 155 157 164 156 153 167 176 166 309 320 321 317 335 359
266 290 287 274 142 105 95 286 297 113 146 31 139 198 262 164 149 145 146 150 152 161 167 167 167 165 165 165 167 171 175 179 182 184 181 185 185 194 206 219 230 259 277 288 304 332 356 6 73
263 273 272 285 273 95 109 277 45 109 142 126 193 157 181 167 151 150 151 155 154 164 152 163 168 172 171 177 177 180 186 191 195 199 201 203 210 204 251 247 258 271 274 276 286 355 52 37 115
237 250 257 332 341 48 83 319 20 299 141 158 173 168 156 154 158 153 156 165 163 170 164 169 172 179 163 189 177 201 202 206 210 213 212 215 184 247 320 282 273 280 270 263 267 324 32 353 332
237 243 262 341 1 360 346 346 221 294 16 82 97 123 140 147 159 174 177 173 180 167 178 178 178 178 170 197 227 263 222 223 224 222 229 211 166 209 247 251 272 284 274 259 264 306 291 328 336
239 248 256 284 91 278 278 283 327 266 61 43 51 79 126 163 170 213 189 171 170 161 174 176 173 178 172 209 212 238 207 246 265 270 235 223 202 204 231 243 269 284 303 294 298 312 299 275 283
238 249 255 243 272 258 266 270 266 274 94 69 291 128 159 182 210 205 162 128 146 153 165 178 185 194 186 174 190 203 195 216 231 237 257 253 215 216 232 233 239 260 265 284 277 268 272 255 282
237 241 252 238 247 241 241 259 250 256 77 257 266 269 185 186 189 207 135 131 131 132 164 182 198 216 210 192 179 208 195 207 213 220 242 254 235 222 232 243 235 235 234 248 262 272 278 291 283
245 271 244 246 240 240 228 256 252 191 135 232 200 261 311 156 192 181 163 137 150 180 150 184 196 231 229 207 194 190 218 213 213 229 226 245 252 223 226 237 239 257 262 261 263 266 273 281 282
241 249 248 235 222 231 242 248 233 153 166 209 151 92 224 71 92 89 99 135 153 184 201 187 194 222 238 219 215 217 217 213 239 225 233 239 251 254 231 241 239 239 257 259 264 269 271 278 280
228 240 231 253 194 210 196 247 137 153 174 191 177 137 72 87 68 95 82 116 154 172 202 193 191 207 236 226 210 231 215 240 225 232 234 246 256 261 250 241 245 260 259 257 258 258 264 275 277
223 212 247 236 175 200 217 234 152 177 176 194 200 154 123 88 73 84 122 121 144 156 187 192 215 203 216 237 239 218 238 229 230 233 236 238 247 248 244 257 248 243 243 247 262 253 245 256 275
264 295 238 207 186 189 230 249 182 182 196 188 176 172 130 126 112 119 178 169 169 175 185 191 201 213 208 207 232 234 236 240 241 238 240 237 245 238 256 252 245 258 253 239 241 256 262 263 271
258 277 282 295 255 192 216 233 260 184 188 198 182 163 144 153 146 116 117 155 179 193 201 202 197 208 221 215 226 238 246 239 224 226 218 205 211 216 221 228 240 247 253 265 265 267 271 273 271
260 259 265 264 262 233 236 258 266 217 180 195 157 164 169 174 154 131 116 103 99 98 95 158 191 190 199 220 218 225 233 199 205 216 215 223 241 241 235 239 245 253 261 282 281 278 275 275 274
244 248 255 264 271 257 199 244 239 242 180 178 164 162 173 171 151 139 129 121 107 100 84 109 134 162 201 199 182 228 220 229 237 240 235 262 278 252 247 252 260 269 284 291 300 296 288 286 284
252 263 264 257 246 272 257 254 267 233 198 174 177 183 176 175 160 147 137 129 124 116 110 107 105 105 111 175 135 103 121 134 152 209 282 285 303 304 305 302 296 296 298 288 289 291 293 291 292
263 254 250 269 252 245 244 253 259 242 182 183 178 177 171 170 166 153 145 137 127 120 115 112 107 101 96 94 94 85 103 111 77 54 57 29 34 358 345 358 353 344 334 322 311 293 284 285 289
241 248 248 240 234 247 244 243 243 251 266 183 168 165 171 170 165 158 155 151 144 136 124 108 105 100 97 96 99 86 80 83 100 83 78 72 45 348 1 8 4 354 351 349 335 332 315 304 303
234 230 237 239 234 243 232 237 244 240 110 158 145 159 169 172 166 165 163 159 156 148 143 133 115 106 95 95 96 100 105 87 95 99 68 87 54 3 12 359 360 359 349 339 327 336 329 327 303
247 228 240 258 276 286 282 281 145 133 136 141 153 159 169 175 166 166 163 165 163 160 154 149 144 132 130 122 120 133 128 119 92 118 105 75 65 43 359 353 346 346 343 331 325 320 328 320 317
217 247 243 225 244 251 261 276 287 186 157 151 158 163 170 174 165 167 166 169 166 167 166 164 153 149 146 141 116 118 114 109 103 85 64 54 21 358 358 339 336 333 326 324 320 320 313 333 331
210 222 232 263 263 261 258 268 43 82 146 141 153 167 180 191 174 170 168 169 170 170 171 167 165 161 157 154 154 134 129 126 116 87 10 352 346 338 338 333 327 323 317 308 306 317 332 298 294
260 243 250 230 241 253 269 238 167 180 163 168 198 186 196 192 190 179 170 170 173 177 182 170 178 175 168 172 162 160 146 188 245 283 305 321 324 326 325 324 322 317 314 307 311 303 303 315 294